Home > Weather > Norrköping > Past weeks

Flag for Sweden Past Weather in Norrköping, Sweden — Yesterday and Last 2 Weeks

Now
75 °F

Scattered clouds.


Feels Like: 78 °F
Forecast: 55 / 74 °F
Wind: 10 mph from West

Location: Norrkoping Airport

Current Time: Jul 26, 2016 at 2:32:12 PM

Latest Report: Jul 26, 2016 at 1:50 PM


Visibility: N/A

Pressure: 29.95 "Hg

Humidity: 54%

Dew Point: 57 °F

Location of NorrköpingLocation

Past Weather in Norrköping — Graph

°F

Norrköping Temperature Yesterday

Maximum temperature yesterday: 84 °F (at 12:20 PM)
Minimum temperature yesterday: 55 °F (at 3:50 AM)
Average temperature yesterday: 72 °F

High & Low Weather Summary for the Past Weeks

 TemperatureHumidityPressure
High86 °F (Jul 24, 3:20 PM)100% (Jul 15, 1:50 AM)30.12 "Hg (Jul 15, 1:50 AM)
Low45 °F (Jul 19, 2:50 AM)21% (Jul 21, 4:20 PM)29.47 "Hg (Jul 11, 1:50 PM)
Average65 °F67%29.92 "Hg
* Reported Jul 11 1:20 PM — Jul 26 1:20 PM, Norrköping, Weather by CustomWeather, © 2016

Note: Actual official high and low records may vary slightly from our data, if they occured in-between our weather recording intervals... More about our weather records

Advertising

Norrköping Weather History for the Previous 24 Hours

Scroll right to see more
 ConditionsComfort  
Time TempWeatherWind HumidityBarometerVisibility
1:20 PM
Tue, Jul 26
77 °FScattered clouds.12 mph54%29.95 "HgN/A
12:50 PM77 °FScattered clouds.12 mph54%29.95 "HgN/A
12:20 PM77 °FScattered clouds.10 mph57%29.95 "HgN/A
11:50 AM77 °FPassing clouds.10 mph61%29.95 "HgN/A
11:20 AM75 °FScattered clouds.8 mph65%29.95 "HgN/A
10:50 AM75 °FPassing clouds.9 mph61%29.95 "HgN/A
10:20 AM75 °FPassing clouds.9 mph61%29.95 "HgN/A
9:50 AM77 °FPassing clouds.7 mph57%29.95 "HgN/A
9:20 AM75 °FPassing clouds.6 mph61%29.95 "HgN/A
8:50 AM73 °FSunny.7 mph65%29.95 "Hg10 mi
8:20 AM72 °FSunny.7 mph73%29.95 "Hg10 mi
7:50 AM68 °FSunny.No wind83%29.95 "Hg10 mi
7:20 AM68 °FMild.No wind83%29.95 "HgN/A
6:50 AM64 °FMild.No wind88%29.95 "HgN/A
6:20 AM61 °FFog.No wind100%29.95 "Hg5 mi
5:50 AM61 °FCool.No wind94%29.95 "Hg1 mi
5:20 AM57 °FFog.No wind100%29.95 "Hg1 mi
4:50 AM57 °FFog.2 mph100%29.95 "Hg2 mi
4:20 AM59 °FFog.3 mph100%29.95 "Hg4 mi
3:50 AM57 °FFog.5 mph100%29.95 "Hg4 mi
3:20 AM57 °FFog.5 mph100%29.98 "Hg4 mi
2:50 AM59 °FFog.5 mph100%29.95 "Hg4 mi
2:20 AM61 °FCool.3 mph94%29.98 "Hg5 mi
1:50 AM63 °FMild.3 mph94%29.98 "HgN/A
1:20 AM63 °FMild.5 mph94%29.98 "HgN/A
12:50 AM63 °FMild.6 mph94%29.98 "HgN/A
12:20 AM63 °FPassing clouds.5 mph94%29.98 "HgN/A
11:50 PM
Mon, Jul 25
63 °FMild.6 mph94%30.01 "HgN/A
11:20 PM63 °FMild.5 mph94%30.01 "HgN/A
10:50 PM64 °FMild.7 mph83%30.01 "HgN/A
10:20 PM66 °FMild.8 mph78%30.01 "HgN/A
9:50 PM64 °FMild.7 mph78%30.01 "HgN/A
9:20 PM68 °FMild.6 mph69%30.01 "HgN/A
8:50 PM72 °FMild.7 mph61%30.01 "HgN/A
8:20 PM73 °FMild.10 mph57%30.01 "HgN/A
7:50 PM75 °FSunny.10 mph54%29.98 "Hg10 mi
7:20 PM77 °FSunny.12 mph47%29.98 "Hg10 mi
6:50 PM79 °FSunny.13 mph42%29.98 "Hg10 mi
6:20 PM81 °FSunny.13 mph37%29.98 "Hg10 mi
5:50 PM81 °FSunny.13 mph34%30.01 "Hg10 mi
5:20 PM81 °FSunny.14 mph37%30.01 "Hg10 mi
4:50 PM82 °FSunny.14 mph37%30.01 "Hg10 mi
4:20 PM82 °FPassing clouds.13 mph35%30.01 "HgN/A
3:50 PM84 °FPassing clouds.14 mph33%30.01 "HgN/A
3:20 PM84 °FPassing clouds.15 mph31%30.01 "HgN/A
2:50 PM84 °FSunny.15 mph31%30.04 "Hg10 mi
2:20 PM84 °FSunny.14 mph33%30.04 "Hg10 mi
Weather by CustomWeather, © 2016

See weather overviewHow to use our weather pages